Location: Karcze
(52.0945°N, 22.4786°E)
Time: 03:37:37
(UTC+00:00)

A-11 Canister half - Visible Passes

Search period start: 26 July 2021 00:00
Search period end: 05 August 2021 00:00
Orbit: 1513 x 1687 km, 47.2° (Epoch: 25 July)

Date Brightness Start Highest point End Pass type
(mag) Time Alt. Az. Time Alt. Az. Time Alt. Az.
26 Jul 9.2 19:12:26 10° WSW 19:22:22 67° S 19:32:26 10° E visible
26 Jul 9.2 21:16:59 10° W 21:26:53 60° SSW 21:36:46 10° ESE visible
26 Jul 9.7 23:22:03 10° W 23:30:38 33° SW 23:35:34 22° S visible
27 Jul 9.2 20:54:03 10° W 21:03:58 61° SSW 21:13:53 10° ESE visible
27 Jul 9.7 22:59:03 10° W 23:07:47 34° SW 23:12:03 25° S visible
28 Jul 9.2 20:31:08 10° W 20:41:02 62° SSW 20:50:55 10° ESE visible
28 Jul 9.6 22:36:04 10° W 22:44:55 36° SW 22:49:01 26° S visible
29 Jul 10.6 00:44:59 10° WSW 00:47:07 11° WSW 00:47:07 11° WSW visible
29 Jul 9.2 20:08:12 10° W 20:18:06 63° SSW 20:28:06 10° ESE visible
29 Jul 9.6 22:13:05 10° W 22:22:03 37° SW 22:26:15 27° S visible
30 Jul 10.5 00:21:10 10° WSW 00:24:20 12° WSW 00:24:20 12° WSW visible
30 Jul 9.2 19:45:17 10° W 19:55:11 64° SSW 20:05:11 10° ESE visible
30 Jul 9.6 21:50:08 10° W 21:59:10 39° SW 22:03:38 27° S visible
30 Jul 10.5 23:57:38 10° W 00:01:46 13° WSW 00:01:46 13° WSW visible
31 Jul 9.3 19:22:21 10° W 19:32:14 65° S 19:42:16 10° ESE visible
31 Jul 9.6 21:27:10 10° W 21:36:18 40° SW 21:41:10 26° SSE visible
31 Jul 10.5 23:34:14 10° W 23:39:04 15° SW 23:39:18 15° SW visible
01 Aug 9.3 18:59:26 10° W 19:09:18 65° S 19:19:21 10° ESE visible
01 Aug 9.6 21:04:12 10° W 21:13:25 42° SSW 21:18:48 25° SSE visible
01 Aug 10.4 23:10:56 10° W 23:16:17 16° SW 23:16:57 16° SW visible
02 Aug 9.6 20:41:15 10° W 20:50:32 43° SSW 20:56:31 23° SSE visible
02 Aug 10.4 22:47:41 10° W 22:53:29 17° SW 22:54:40 17° SW visible
03 Aug 9.6 20:18:18 10° W 20:27:39 45° SSW 20:34:18 20° SSE visible
03 Aug 10.4 22:24:30 10° W 22:30:40 18° SW 22:32:27 17° SW visible
04 Aug 9.6 19:55:22 10° W 20:04:45 47° SSW 20:12:09 18° SE visible
04 Aug 10.3 22:01:21 10° W 22:07:52 20° SW 22:10:18 18° SSW visible
